Weather Roundup
Issued by NWS

Home | Current Version | Previous Version | Text Only | Print | Product List | Glossary On
Versions: 1 2 3 4 5 6 7 8 9 10 11 12 13 14 15 16 17 18 19 20 21 22 23 24 25 26 27 28 29 30 31 32 33 34 35 36 37 38 39 40 41 42 43 44 45 46 47 48 49 50
000
NZUS93 KARX 021559
HRRWXR

CURRENT HOURLY OBSERVATIONS ACROSS
MUCH OF THE UPPER MISSISSIPPI VALLEY
NATIONAL WEATHER SERVICE LA CROSSE WI
1100 AM CDT SUN AUG 02 2015


...SOUTHEAST MINNESOTA...


CITY           SKY/WX    TMP DP  RH WIND       PRES   REMARKS
ROCHESTER      MOSUNNY   80  71  74 SW20G28   29.69F
ROCHESTER/MAYO FAIR      82  68  63 W20G30    29.67F
WINONA         SUNNY     82  68  61 SW10      29.64F
AUSTIN         SUNNY     82  70  65 SW15      29.71F
ALBERT LEA     SUNNY     82  70  65 SW13G21   29.71F
DODGE CENTER   MOSUNNY   81  70  69 W14G24    29.70S
PRESTON        SUNNY     81  68  65 SW12      29.71F
OWATONNA       MOSUNNY   81  68  65 SW16G25   29.69F
FARIBAULT      MOSUNNY   81  66  61 SW16G22   29.68F
$$

...ELSEWHERE IN MINNESOTA...


CITY           SKY/WX    TMP DP  RH WIND       PRES   REMARKS
MINNEAPOLIS    MOSUNNY   80  64  58 SW15      29.62F
INTNL FALLS    PTSUNNY   68  56  65 NW14      29.67F
DULUTH         PTSUNNY   65  59  81 NW7       29.64S
RED WING       MOSUNNY   84  64  51 W15       29.61F
REDWOOD FALLS  SUNNY     80  64  58 NW9G22    29.71R
MANKATO        SUNNY     81  64  57 W16       29.69F
WORTHINGTON    SUNNY     79  64  61 W13       29.79R
FAIRMONT       SUNNY     82  66  57 W9G18     29.74R
$$

...SOUTHWEST WISCONSIN...


CITY           SKY/WX    TMP DP  RH WIND       PRES   REMARKS
LA CROSSE      SUNNY     85  69  58 S13       29.66F
PRAIRIE DU CHI SUNNY     83  64  52 SW8       29.74F
BOSCOBEL       SUNNY     86  68  54 SW9G21    29.74F
LONE ROCK      NOT AVBL
PLATTEVILLE    SUNNY     77  70  77 SW12      29.78S
FORT MC COY    SUNNY     84  65  54 SW9       29.69F
VIROQUA        FAIR      81  68  64 W15       29.74F
WIS DELLS      SUNNY     83  65  54 SW13G18   29.72F
$$

...ELSEWHERE IN WISCONSIN...


CITY           SKY/WX    TMP DP  RH WIND       PRES   REMARKS
MILWAUKEE      PTSUNNY   86  67  52 SW22G31   29.74F
MADISON        PTSUNNY   81  68  64 VRB7      29.74R
GREEN BAY      CLOUDY    80  70  71 S16G22    29.66F
EAU CLAIRE     SUNNY     80  67  64 W12       29.61F
BLACK RVR FLS  FAIR      84  66  53 SW12G20   29.64F
MEDFORD        PTSUNNY   73  66  79 W9        29.66F
WAUSAU         PTSUNNY   77  67  71 SW9G18    29.63F
WIS RAPIDS     MOSUNNY   85  65  51 SW12      29.67F
MARSHFIELD     MOSUNNY   81  65  58 W15       29.65F
RICE LAKE      PTSUNNY   74  66  75 W7        29.66R
$$

...NORTHEAST IOWA...


CITY           SKY/WX    TMP DP  RH WIND       PRES   REMARKS
DECORAH        SUNNY     79  68  69 SW8G17    29.74F
MASON CITY     SUNNY     82  71  69 W17G26    29.76F
CHARLES CITY   SUNNY     81  72  74 W17G25    29.75F
OELWEIN        SUNNY     81  70  69 SW8G17    29.79S
$$

...ELSEWHERE IN IOWA...


CITY           SKY/WX    TMP DP  RH WIND       PRES   REMARKS
DES MOINES     MOSUNNY   88  71  57 W21       29.81S HX  94
IOWA CITY      SUNNY     82  68  62 SW12      29.82F
FORT DODGE     SUNNY     82  72  69 SW12      29.79F
$$

...NORTHERN ILLINOIS...


CITY           SKY/WX    TMP DP  RH WIND       PRES   REMARKS
CHICAGO-OHARE  MOSUNNY   85  64  49 W16G24    29.81F
CHICAGO-MIDWAY MOSUNNY   88  62  41 W18G28    29.82F
MOLINE         MOSUNNY   83  66  56 SW12G23   29.83F
ROCKFORD       MOSUNNY   84  64  50 SW20G26   29.80F
PEORIA         PTSUNNY   86  69  56 SW14      29.89F HX  90
$$

NOTE: "FAIR" INDICATES FEW OR NO CLOUDS BELOW 12,000 FEET WITH NO
SIGNIFICANT WEATHER AND/OR OBSTRUCTIONS TO VISIBILITY. WIND
SPEEDS ARE IN MILES-PER-HOUR.



USA.gov is the U.S. government's official web portal to all federal, state and local government web resources and services.